Phoenix, AZ

12:25 PM MST on February 23, 2018 (GMT -0700)
Phoenix Sky Harbor International

Weather History for KPHX - February, 2014

Change the Weather History Date:

Tuesday, February 25, 2014

  Actual Average Record
Temperature  
Mean Temperature 68 °F 61 °F  
Max Temperature 77 °F 72 °F 92 °F (1921)
Min Temperature 58 °F 50 °F 29 °F (1960)
Degree Days  
Heating Degree Days 0 5  
Month to date heating degree days 65 150  
Since 1 July heating degree days 534 820  
Cooling Degree Days 3 1  
Month to date cooling degree days 45 8  
Year to date cooling degree days 49 10  
Growing Degree Days 17 (Base 50)    
Moisture  
Dew Point 32 °F    
Average Humidity 26    
Maximum Humidity 34    
Minimum Humidity 18    
Precipitation  
Precipitation 0.00 in 0.04 in 0.81 in (1913)
Month to date precipitation 0.00 0.81  
Year to date precipitation 0.00 1.72  
Snow  
Snow 0.00 in - - ()
Month to date snowfall 0.0  
Year to date snowfall 0.0  
Since 1 July snowfall 0.0  
Snow Depth 0.00 in    
Sea Level Pressure  
Sea Level Pressure 29.91 in    
Wind  
Wind Speed 5 mph (South)    
Max Wind Speed 12 mph    
Max Gust Speed 16 mph    
Visibility 10 miles    
Events      
T = Trace of Precipitation, MM = Missing Value Source: NWS Daily Summary

Daily Weather History Graph

Daily Weather History Graph

Search for Another Location

Airport or City:

Trip Planner

Search our weather history database for the weather conditions in past years. The results will help you decide how hot, cold, wet, or windy it might be!

Date:

Astronomy

Feb. 25, 2014 Rise Set
Actual Time 7:00 AM MST 6:21 PM MST
Civil Twilight 6:35 AM MST 6:46 PM MST
Nautical Twilight 6:07 AM MST 7:15 PM MST
Astronomical Twilight 5:38 AM MST 7:44 PM MST
Moon 3:51 AM MST (2/25) 2:39 PM MST (2/25)
Length of Visible Light 12h 10m
Length of Day
11h 20m
Waning Crescent, 17% of the Moon is Illuminated
Feb 25
Waning Crescent
Mar 1
New
Mar 8
First Quarter
Mar 16
Full
Mar 23
Last Quarter

Hourly Weather History & Observations

Time (MST) Temp. Dew Point Humidity Pressure Visibility Wind Dir Wind Speed Gust Speed Precip Events Conditions
12:51 AM 64.0 °F 28.9 °F 27% 29.90 in 10.0 mi SW 4.6 mph - N/A   Partly Cloudy
1:51 AM 62.1 °F 33.1 °F 34% 29.90 in 10.0 mi East 4.6 mph - N/A   Partly Cloudy
2:51 AM 61.0 °F 30.0 °F 31% 29.89 in 10.0 mi East 8.1 mph - N/A   Partly Cloudy
3:51 AM 60.1 °F 28.9 °F 31% 29.89 in 10.0 mi Calm Calm - N/A   Partly Cloudy
4:51 AM 60.1 °F 30.0 °F 32% 29.88 in 10.0 mi ESE 4.6 mph - N/A   Partly Cloudy
5:51 AM 60.1 °F 30.0 °F 32% 29.89 in 10.0 mi Calm Calm - N/A   Partly Cloudy
6:51 AM 59.0 °F 30.0 °F 33% 29.91 in 10.0 mi East 3.5 mph - N/A   Overcast
7:51 AM 60.1 °F 30.0 °F 32% 29.93 in 10.0 mi East 3.5 mph - N/A   Mostly Cloudy
8:51 AM 63.0 °F 28.9 °F 28% 29.96 in 10.0 mi ESE 6.9 mph - N/A   Mostly Cloudy
9:51 AM 64.9 °F 28.9 °F 26% 29.95 in 10.0 mi East 8.1 mph - N/A   Overcast
10:51 AM 68.0 °F 30.9 °F 25% 29.96 in 10.0 mi ESE 8.1 mph - N/A   Mostly Cloudy
11:51 AM 71.1 °F 32.0 °F 24% 29.94 in 10.0 mi Variable 3.5 mph - N/A   Overcast
12:51 PM 73.0 °F 30.0 °F 20% 29.92 in 10.0 mi Calm Calm - N/A   Overcast
1:51 PM 73.9 °F 28.9 °F 19% 29.90 in 10.0 mi Calm Calm - N/A   Overcast
2:51 PM 75.9 °F 28.9 °F 18% 29.89 in 10.0 mi West 6.9 mph - N/A   Overcast
3:51 PM 75.9 °F 30.9 °F 19% 29.88 in 10.0 mi West 8.1 mph - N/A   Overcast
4:51 PM 75.9 °F 33.1 °F 21% 29.88 in 10.0 mi WNW 5.8 mph - N/A   Overcast
5:51 PM 73.9 °F 33.1 °F 22% 29.89 in 10.0 mi West 8.1 mph - N/A   Overcast
6:51 PM 73.0 °F 35.1 °F 25% 29.90 in 10.0 mi WNW 6.9 mph - N/A   Overcast
7:51 PM 72.0 °F 37.0 °F 28% 29.91 in 10.0 mi NW 8.1 mph - N/A   Mostly Cloudy
8:51 PM 68.0 °F 37.9 °F 33% 29.93 in 10.0 mi SW 4.6 mph - N/A   Overcast
9:51 PM 68.0 °F 37.9 °F 33% 29.93 in 10.0 mi SW 3.5 mph - N/A   Overcast
10:51 PM 69.1 °F 37.9 °F 32% 29.93 in 10.0 mi Calm Calm - N/A   Overcast
11:51 PM 64.0 °F 39.0 °F 40% 29.94 in 10.0 mi Calm Calm - N/A   Scattered Clouds